sat.trackr.live / text

‹ back to catalog

STARLINK-34010

NORAD 63848 · 2025-093N

PAYLOAD ACTIVE UNKNOWN

§ Identity

Operator
Country
US
Launch date
2025-05-07
Launch site
AFETR
Launch vehicle
Mass (kg)
RCS (m²)

Purposes: comms

External: N2YO · Heavens-Above · Gunter

§ Orbital elements

Epoch: 2026-09-20T03:45:27.608256Z

Period
94.27 min
Inclination
43.0045°
Eccentricity
0.0002603
Mean motion
15.27590450 rev/d
Perigee alt
481.2 km
Apogee alt
484.8 km
Semi-major
6,861.2 km
B*
3.7581e-4
RAAN
59.6292°
Arg perigee
266.8117°
Mean anomaly
93.2437°
Rev number
7,749

§ Raw data

STARLINK-340101 63848U 25093N   26263.15656954  .00010097  00000+0  37581-3 0  99912 63848  43.0045  59.6292 0002603 266.8117  93.2437 15.27590450 77495

JSON: /api/v1/satellites/63848 · /tle

For live sub-satellite position, see the globe view (requires WebGL).

§ Visibility from observer

Set your observer location to see the next 7 days of passes ≥ 10°. The values pass through the URL so the page stays shareable.

No JS? Fill the form by hand. The geolocation button needs JavaScript.